EW7144 Weather Reports


Display with metric or nautical units.
time (UTC)temp
F
wind
direction
speed
MPH
gust
MPH
rain 1hr
in
rain 24hr
in
rain mn
in
humidity
%
barometer
mb
20190120154410 61 282 8.0 26.0 0.00 0.00 0.00 86 1006.7
20190120153410 61 283 8.0 22.0 0.00 0.00 0.00 86 1006.7
20190120152410 61 258 8.0 22.0 0.00 0.00 0.00 87 1006.7
20190120151409 61 286 7.0 24.0 0.00 0.00 0.00 86 1006.9
20190120150410 61 270 7.0 17.0 0.00 0.00 0.00 85 1007.0
20190120145410 61 293 6.0 20.0 0.00 0.00 0.00 84 1007.1
20190120144409 60 279 7.0 18.0 0.00 0.00 0.00 84 1007.2
20190120143409 60 253 7.0 24.0 0.00 0.00 0.00 86 1007.5
20190120142410 62 289 10.0 24.0 0.00 0.00 0.00 87 1007.4
20190120141409 62 279 10.0 25.0 0.00 0.00 0.00 85 1007.5
20190120140409 63 272 10.0 23.0 0.00 0.00 0.00 85 1007.4
20190120135409 63 274 9.0 26.0 0.00 0.00 0.00 84 1007.6
20190120134410 62 280 8.0 20.0 0.00 0.00 0.00 85 1007.8
20190120133410 62 293 7.0 21.0 0.00 0.00 0.00 85 1008.0
20190120132410 62 293 11.0 22.0 0.00 0.00 0.00 85 1008.1
20190120131410 62 283 8.0 20.0 0.00 0.00 0.00 84 1008.1
20190120130410 62 301 6.0 21.0 0.00 0.00 0.00 85 1008.3
20190120125409 62 264 8.0 26.0 0.00 0.00 0.00 84 1008.4
20190120124409 62 278 7.0 20.0 0.00 0.00 0.00 85 1008.6
20190120123410 62 266 9.0 26.0 0.00 0.00 0.00 87 1008.5
20190120122410 62 284 10.0 23.0 0.00 0.00 0.00 86 1008.6
20190120121409 62 320 10.0 28.0 0.00 0.00 0.00 85 1008.6
20190120120409 62 297 11.0 21.0 0.00 0.00 0.00 84 1008.8
20190120115410 62 272 7.0 20.0 0.00 0.00 0.00 85 1009.0
20190120114410 62 267 9.0 18.0 0.00 0.01 0.00 85 1009.1
20190120113410 62 287 8.0 20.0 0.00 0.02 0.00 85 1009.2
20190120112410 62 274 7.0 20.0 0.00 0.10 0.00 85 1009.3
20190120111409 62 265 9.0 26.0 0.00 0.14 0.00 83 1009.2
20190120110409 62 281 6.0 17.0 0.00 0.24 0.00 83 1009.3
20190120105409 62 298 7.0 25.0 0.00 0.24 0.24 83 1009.3
20190120104411 62 287 8.0 18.0 0.00 0.24 0.24 82 1009.4
20190120103409 62 270 8.0 23.0 0.00 0.24 0.24 82 1009.3
20190120102409 62 288 7.0 20.0 0.00 0.24 0.24 81 1009.5
20190120101409 62 275 8.0 25.0 0.00 0.24 0.24 80 1009.4
20190120100409 62 267 8.0 24.0 0.00 0.24 0.24 80 1009.4
20190120095410 62 276 9.0 23.0 0.00 0.24 0.24 81 1009.4
20190120094412 61 267 7.0 21.0 0.00 0.24 0.24 83 1009.6
20190120093409 62 238 8.0 20.0 0.00 0.24 0.24 82 1009.6
20190120092409 62 282 9.0 22.0 0.00 0.24 0.24 81 1009.5
20190120091409 61 275 9.0 21.0 0.00 0.24 0.24 82 1009.4
20190120090410 61 290 6.0 24.0 0.00 0.24 0.24 82 1009.5
20190120085409 61 298 6.0 23.0 0.00 0.24 0.24 83 1009.5
20190120084410 61 274 9.0 18.0 0.00 0.24 0.24 83 1009.3
20190120083409 60 271 9.0 16.0 0.00 0.24 0.24 84 1009.2
20190120082410 60 294 9.0 20.0 0.00 0.24 0.24 84 1009.2
20190120081409 60 277 8.0 23.0 0.00 0.24 0.24 83 1009.4
20190120080409 60 226 9.0 20.0 0.00 0.24 0.24 83 1009.4
20190120075409 60 279 8.0 20.0 0.00 0.24 0.24 82 1009.3
20190120074409 61 247 6.0 17.0 0.00 0.24 0.24 81 1009.3
20190120073410 61 308 5.0 15.0 0.00 0.24 0.24 79 1009.2
20190120072409 62 293 6.0 16.0 0.00 0.24 0.24 77 1009.2
20190120071410 62 287 8.0 23.0 0.00 0.24 0.24 75 1009.1
20190120070410 62 268 7.0 23.0 0.00 0.24 0.24 75 1009.0
20190120065410 63 277 10.0 29.0 0.00 0.24 0.24 73 1008.9
20190120064411 63 277 9.0 24.0 0.00 0.24 0.24 72 1008.9
20190120063410 63 284 8.0 26.0 0.00 0.24 0.24 72 1009.0
20190120062409 64 296 9.0 24.0 0.00 0.24 0.24 70 1008.8
20190120061409 64 276 10.0 26.0 0.00 0.24 0.24 70 1008.8
20190120060410 64 284 8.0 25.0 0.00 0.24 0.24 70 1008.8
20190120055409 65 293 10.0 23.0 0.00 0.24 0.24 69 1008.8
20190120054409 65 291 9.0 26.0 0.00 0.24 0.24 68 1008.8
20190120053410 66 266 12.0 32.0 0.00 0.24 0.24 64 1008.7
20190120052409 66 285 9.0 25.0 0.00 0.24 0.24 65 1008.6
20190120051410 66 275 9.0 24.0 0.00 0.24 0.24 65 1008.8
20190120050410 67 286 9.0 23.0 0.00 0.24 0.24 65 1008.6
20190120045410 67 275 12.0 26.0 0.00 0.24 0.24 66 1008.6
20190120044410 67 294 11.0 23.0 0.00 0.24 0.24 70 1008.7
20190120043409 67 276 10.0 23.0 0.00 0.24 0.24 67 1008.7
20190120042410 67 293 12.0 22.0 0.00 0.24 0.24 69 1008.6
20190120041410 67 292 13.0 22.0 0.00 0.24 0.24 66 1008.7
20190120040410 68 286 12.0 23.0 0.00 0.24 0.24 66 1008.7
20190120035409 68 276 10.0 22.0 0.00 0.24 0.24 67 1008.8
20190120034409 68 280 11.0 26.0 0.00 0.24 0.24 68 1008.8
20190120033409 68 288 10.0 20.0 0.00 0.24 0.24 64 1008.8
20190120032410 69 264 11.0 21.0 0.00 0.24 0.24 63 1008.8
20190120031410 69 284 11.0 23.0 0.00 0.24 0.24 64 1009.2
20190120030410 69 283 9.0 23.0 0.00 0.24 0.24 64 1009.1
20190120025410 69 283 13.0 31.0 0.00 0.24 0.24 65 1009.0
20190120024410 70 285 10.0 22.0 0.00 0.24 0.24 62 1009.0
20190120023409 69 288 11.0 26.0 0.00 0.24 0.24 65 1009.1
20190120022409 70 298 10.0 26.0 0.00 0.24 0.24 61 1009.0
20190120021409 69 293 12.0 26.0 0.00 0.24 0.24 61 1009.1
20190120020409 69 290 11.0 25.0 0.00 0.24 0.24 62 1009.1
20190120015409 69 298 12.0 24.0 0.00 0.24 0.24 62 1009.3
20190120014409 69 295 10.0 25.0 0.00 0.24 0.24 62 1009.2
20190120013410 69 285 13.0 26.0 0.00 0.24 0.24 60 1009.1
20190120012409 69 292 10.0 28.0 0.00 0.24 0.24 62 1008.9
20190120011410 69 292 13.0 22.0 0.00 0.24 0.24 62 1009.0
20190120010409 69 288 12.0 24.0 0.00 0.24 0.24 60 1009.2
20190120005410 69 284 11.0 24.0 0.00 0.24 0.24 60 1009.1
20190120004410 69 293 12.0 26.0 0.00 0.24 0.24 62 1009.1
20190120003409 68 296 12.0 26.0 0.00 0.24 0.24 62 1009.2
20190120002409 68 279 10.0 21.0 0.00 0.24 0.24 62 1009.3
20190120001410 68 289 12.0 24.0 0.00 0.24 0.24 61 1009.0
20190120000409 68 288 10.0 22.0 0.00 0.24 0.24 62 1009.1
20190119235409 68 322 9.0 26.0 0.00 0.24 0.24 64 1009.1
20190119234409 68 272 9.0 25.0 0.00 0.24 0.24 63 1009.2
20190119233409 68 292 10.0 23.0 0.00 0.24 0.24 62 1009.2
20190119232410 68 274 10.0 23.0 0.00 0.24 0.24 63 1009.2
20190119231409 68 283 10.0 24.0 0.00 0.24 0.24 63 1009.2
20190119230410 68 279 8.0 20.0 0.00 0.24 0.24 58 1009.1
20190119225409 68 278 7.0 20.0 0.00 0.24 0.24 60 1009.1
20190119224410 67 282 10.0 22.0 0.00 0.24 0.24 62 1009.2
20190119223410 68 281 10.0 24.0 0.00 0.24 0.24 60 1009.2
20190119222410 68 283 7.0 22.0 0.00 0.24 0.24 58 1009.2
20190119221409 68 271 6.0 17.0 0.00 0.24 0.24 60 1009.0
20190119220411 68 248 6.0 18.0 0.00 0.24 0.24 54 1008.8
20190119215410 67 275 5.0 21.0 0.00 0.24 0.24 60 1008.6
20190119214410 67 268 6.0 20.0 0.00 0.24 0.24 56 1008.8
20190119213409 66 219 5.0 24.0 0.00 0.24 0.24 58 1008.7
20190119212409 66 267 7.0 24.0 0.00 0.24 0.24 55 1008.9
20190119211409 66 302 4.0 21.0 0.00 0.24 0.24 58 1008.9
20190119210410 66 226 5.0 18.0 0.00 0.24 0.24 59 1008.8
20190119205409 65 262 6.0 20.0 0.00 0.24 0.24 61 1008.7
20190119204410 66 292 3.0 17.0 0.00 0.24 0.24 65 1008.6
20190119203410 65 287 4.0 15.0 0.00 0.24 0.24 65 1008.7
20190119202409 64 301 6.0 17.0 0.00 0.24 0.24 65 1008.5
20190119201410 64 290 7.0 18.0 0.00 0.24 0.24 64 1008.3
20190119200409 63 297 4.0 20.0 0.00 0.24 0.24 68 1008.2
20190119195409 63 219 6.0 13.0 0.00 0.24 0.24 71 1008.1
20190119194409 62 287 7.0 15.0 0.00 0.24 0.24 69 1008.0
20190119193409 62 260 7.0 20.0 0.00 0.24 0.24 71 1007.8
20190119192418 62 286 5.0 17.0 0.00 0.24 0.24 72 1007.7
20190119191410 61 266 3.0 15.0 0.00 0.24 0.24 74 1007.4
20190119190410 61 250 5.0 16.0 0.00 0.24 0.24 75 1007.2
20190119185411 60 237 6.0 22.0 0.00 0.24 0.24 73 1007.0
20190119184410 60 267 5.0 18.0 0.00 0.24 0.24 77 1006.7
20190119183410 60 282 5.0 22.0 0.00 0.24 0.24 77 1006.6
20190119182410 60 249 7.0 21.0 0.00 0.24 0.24 77 1006.3
20190119181410 60 270 8.0 20.0 0.00 0.24 0.24 75 1006.1
20190119180409 60 253 7.0 20.0 0.00 0.24 0.24 76 1005.8
20190119175409 60 277 5.0 26.0 0.00 0.24 0.24 79 1005.6
20190119174409 60 247 5.0 26.0 0.00 0.24 0.24 83 1005.5
20190119173409 59 267 6.0 14.0 0.00 0.24 0.24 82 1005.2
20190119172409 59 258 5.0 14.0 0.00 0.24 0.24 82 1004.9
20190119171409 59 248 5.0 15.0 0.00 0.24 0.24 82 1004.9
20190119170410 59 220 4.0 20.0 0.00 0.24 0.24 82 1005.0
20190119165410 60 218 8.0 18.0 0.00 0.24 0.24 81 1004.8
20190119164409 59 222 6.0 20.0 0.00 0.24 0.24 83 1004.7
20190119163410 59 265 8.0 21.0 0.00 0.24 0.24 81 1004.5
20190119162409 59 238 5.0 21.0 0.00 0.24 0.24 81 1004.4
20190119161410 59 231 5.0 17.0 0.00 0.24 0.24 80 1004.3
20190119160409 59 273 4.0 15.0 0.00 0.24 0.24 80 1004.4
20190119155409 59 250 7.0 26.0 0.00 0.24 0.24 80 1004.3